Tracking 19562 objects as of 25-Mar-2019
HD Live streaming from Space Station
objects crossing your sky now

DSCS 3-1

Track DSCS 3-1 now!
DSCS 3-1 is classified as:


NORAD ID: 13637
Int'l Code: 1982-106B
Perigee: 36,434.0 km
Apogee: 36,551.9 km
Inclination: 15.1 °
Period: 1,472.0 minutes
Semi major axis: 42863 km
RCS: Unknown
Launch date: October 30, 1982
Source: United States (US)
Launch site: AIR FORCE EASTERN TEST RANGE (AFETR)
aabbcc
Your satellite tracking list
Your tracking list is empty




NASA's NSSDC Master Catalog

Two Line Element Set (TLE):
1 13637U 82106B   19083.12271553 -.00000131 +00000-0 +00000-0 0  9990
2 13637 015.1017 353.8978 0013752 113.9988 057.5575 00.97828285039462
Source of the keplerian elements: McCants